[[{"header":{"parameterUnit":"m.s-1","parameterCategory":2,"la1":30.2991,"la2":30.254,"lo1":-89.0895,"lo2":-89.0444,"dy":0.0017,"dx":0.0017,"nx":28,"ny":28,"refTime":"2025-06-09T03:00:00:Z","depth":"0","parameterNumber":2,"parameterNumberName":"U-component_of_CURRENTS"},"data":[0,0,0,0,0,0,0,0,0,0,0,0,0,0,0,0,0,0,0,0,0,0,0,0,0,0,0,0,0,0,0,0,0,0,0,0,0,0,0,0,0,0,0,0,0,0,0,0,0,0,0,0,0,0,0,0,0,0,-0.2184,-0.2185,0,-0.2257,-0.2258,-0.2259,-0.22,-0.2198,-0.2195,-0.2193,-0.2173,-0.2175,-0.2177,0,0,0,0,0,0,0,0,0,0,0,0,0,-0.2212,-0.221,-0.2184,-0.2185,-0.2186,-0.2257,-0.2258,-0.2259,-0.2201,-0.2198,-0.2195,-0.2192,-0.2172,-0.2175,-0.2177,0,0,0,0,0,0,0,0,0,0,0,0,0,-0.2233,-0.2209,-0.2184,-0.2165,-0.2164,-0.2257,-0.2258,-0.226,-0.2201,-0.2198,-0.2194,-0.219,-0.2172,-0.2174,-0.2177,-0.2269,0,0,-0.2185,-0.2186,0,0,0,0,0,0,0,0,-0.2232,-0.2232,-0.2167,-0.2167,-0.2166,-0.2216,-0.2261,-0.2258,-0.2202,-0.2187,-0.2193,-0.2188,-0.2181,-0.2183,-0.2207,-0.2268,-0.2267,-0.2186,-0.2187,-0.2188,-0.2189,0,0,0,0,0,0,0,-0.223,-0.223,-0.2213,-0.2168,-0.2168,-0.2228,-0.2225,-0.2261,-0.2203,-0.2188,-0.2184,-0.2194,-0.218,-0.2204,-0.2206,-0.2267,-0.2185,-0.2188,-0.219,-0.2191,-0.2346,-0.2349,0,0,0,0,0,0,-0.2213,-0.2228,-0.2211,-0.2215,-0.219,-0.2229,-0.2226,-0.2204,-0.2205,-0.2202,-0.2197,-0.2191,-0.2202,-0.2202,-0.2204,-0.2237,-0.2188,-0.2191,-0.2192,-0.2344,-0.2347,-0.2349,0,0,0,0,0,0,-0.2213,-0.221,-0.2208,-0.2225,-0.2229,-0.2231,-0.2208,-0.2207,-0.2213,-0.2212,-0.2206,-0.22,-0.2199,-0.2201,-0.2241,-0.2238,-0.2192,-0.2195,-0.2341,-0.2345,-0.2348,-0.2351,0,0,0,0,0,0,-0.2213,-0.2209,-0.219,-0.2223,-0.2227,-0.2231,-0.2212,-0.2211,-0.2225,-0.2217,-0.2214,-0.2209,-0.2196,-0.2237,-0.2244,-0.2241,-0.2197,-0.2338,-0.2342,-0.2347,-0.2347,-0.2354,-0.236,0,0,0,0,0,-0.2214,-0.2185,-0.2188,-0.2187,-0.2198,-0.2231,-0.2238,-0.223,-0.2229,-0.2224,-0.2249,-0.2208,-0.227,-0.2243,-0.2249,-0.2246,-0.2335,-0.2341,-0.2346,-0.2345,-0.2353,-0.2359,0,0,0,0,0,0,-0.2191,-0.2179,-0.2181,-0.2151,-0.218,-0.2219,-0.2218,-0.2239,-0.2262,-0.2251,-0.2255,-0.2254,-0.2283,-0.229,-0.226,-0.2312,-0.2291,-0.2299,-0.2288,-0.2295,-0.2302,-0.2271,-0.2199,0,0,0,0,0,-0.2182,-0.2143,-0.2174,-0.215,-0.2162,-0.2202,-0.2218,-0.2222,-0.225,-0.2255,-0.2264,-0.2287,-0.2323,-0.2325,-0.235,-0.2394,-0.2321,-0.2397,-0.2403,-0.2408,-0.2392,-0.2387,-0.2389,-0.2368,-0.2368,-0.2368,0,0,-0.2169,-0.2158,-0.2137,-0.2143,-0.2164,-0.218,-0.2199,-0.2214,-0.223,-0.2254,-0.2272,-0.231,-0.2345,-0.2379,-0.2392,-0.2374,-0.2348,-0.2415,-0.2418,-0.24,-0.2393,-0.2394,-0.2395,-0.2372,-0.2371,-0.237,0,0,-0.2128,-0.2115,-0.2077,-0.2099,-0.2124,-0.2158,-0.2163,-0.2208,-0.2219,-0.227,-0.2294,-0.234,-0.2383,-0.2409,-0.2431,-0.2499,-0.2389,-0.2504,-0.2497,-0.2493,-0.2492,-0.2492,-0.2263,-0.2243,-0.2498,-0.2498,-0.2498,0,-0.2119,-0.207,-0.2081,-0.2069,-0.2085,-0.2145,-0.2144,-0.2185,-0.2239,-0.2266,-0.2257,-0.2369,-0.2393,-0.2459,-0.2477,-0.2504,-0.2415,-0.2457,-0.2494,-0.2494,-0.2493,-0.226,-0.2237,-0.2499,-0.2499,-0.2499,-0.2499,0,-0.2062,-0.2034,-0.2022,-0.2015,-0.2041,-0.205,-0.2111,-0.2147,-0.2185,-0.223,-0.23,-0.2363,-0.2417,-0.2447,-0.2479,-0.2512,-0.2408,-0.2503,-0.2459,-0.2494,-0.2245,-0.2221,-0.25,-0.25,-0.25,-0.2499,0,0,-0.2023,-0.1984,-0.1982,-0.1966,-0.2013,-0.2026,-0.2073,-0.2134,-0.2156,-0.2229,-0.2256,-0.2365,-0.2404,-0.2435,-0.2492,-0.2501,-0.2385,-0.2496,-0.2495,-0.2231,-0.2195,-0.2089,-0.205,-0.2498,-0.2498,-0.2498,-0.1968,0,-0.1984,-0.193,-0.1933,-0.1915,-0.1906,-0.1974,-0.2006,-0.2072,-0.2132,-0.2174,-0.2275,-0.2317,-0.2399,-0.2416,-0.2453,-0.2454,-0.2347,-0.2507,-0.2232,-0.2219,-0.2097,-0.2033,-0.1971,-0.1499,-0.1944,-0.194,-0.1937,0,-0.1941,-0.1906,-0.1868,-0.1851,-0.1855,-0.1863,-0.1924,-0.1957,-0.2056,-0.2095,-0.2182,-0.2247,-0.23,-0.2357,-0.2292,-0.2392,-0.2261,-0.2221,-0.2202,-0.2097,-0.2077,-0.157,-0.1438,-0.1536,-0.19,-0.1903,-0.1906,0,-0.1912,-0.1866,-0.1825,-0.1825,-0.1829,-0.1834,-0.1851,-0.1937,-0.1957,-0.2037,-0.2042,-0.2141,-0.2149,-0.2125,-0.2075,-0.2165,-0.1924,-0.2034,-0.175,-0.1729,-0.1619,-0.1595,-0.1535,-0.1879,-0.188,-0.1882,-0.1883,0,-0.1877,-0.1844,-0.1798,-0.1782,-0.1746,-0.1771,-0.1763,-0.181,-0.1856,-0.1859,-0.1986,-0.199,-0.211,-0.203,-0.1975,-0.1761,-0.1818,-0.1679,-0.1622,-0.1603,-0.1586,-0.1627,-0.1722,-0.1862,-0.1866,-0.187,-0.1874,0,-0.1854,-0.1826,-0.1773,-0.1741,-0.1729,-0.1705,-0.1688,-0.168,-0.173,-0.173,-0.1742,-0.1831,-0.1735,-0.1722,-0.1611,-0.1574,-0.1392,-0.1284,-0.1144,-0.1086,-0.1003,-0.1099,-0.0887,-0.0857,-0.0876,-0.0871,-0.0867,0,-0.1825,-0.1794,-0.1735,-0.1694,-0.1671,-0.1632,-0.1605,-0.1629,-0.1615,-0.1627,-0.1607,-0.1535,-0.1491,-0.1241,-0.1156,-0.0901,-0.1063,-0.0685,-0.0914,-0.0933,-0.0998,-0.11,-0.1101,-0.0657,-0.0651,-0.0646,-0.0642,0,-0.1768,-0.1753,-0.1705,-0.1625,-0.1569,-0.1512,-0.1467,-0.1442,-0.1457,-0.1442,-0.1385,-0.134,-0.1118,-0.0931,-0.065,-0.055,-0.0772,-0.0578,-0.0701,-0.0889,-0.0893,-0.0857,-0.0922,-0.0601,-0.0605,-0.0608,-0.061,-0.0612,-0.171,-0.1664,-0.1596,-0.1519,-0.1454,-0.1374,-0.1302,-0.1271,-0.1214,-0.1145,-0.1164,-0.1023,-0.083,-0.0479,-0.0394,-0.027,-0.036,-0.0303,-0.0395,-0.0477,-0.0575,-0.0446,-0.0071,-0.0072,-0.0073,-0.0074,-0.0075,0,-0.1603,-0.1554,-0.1483,-0.1367,-0.1267,-0.1273,-0.1182,-0.1097,-0.0995,-0.0923,-0.0845,-0.0601,-0.0414,-0.0297,-0.0123,-0.0135,-0.0201,-0.019,-0.0387,-0.0384,-0.0319,-0.0455,-0.0029,-0.0029,-0.0029,-0.0029,-0.0029,-0.0029,-0.1521,-0.1426,-0.1391,-0.1197,-0.1125,-0.0968,-0.0901,-0.0808,-0.0715,-0.0518,-0.036,-0.0244,-0.0188,-0.0301,-0.0325,-0.0293,-0.0417,-0.0339,-0.042,-0.0504,-0.0527,-0.0549,-0.0705,-0.0339,-0.0339,-0.0462,-0.0464,-0.0465]},{"header":{"parameterUnit":"m.s-1","parameterCategory":2,"la1":30.2991,"la2":30.254,"lo1":-89.0895,"lo2":-89.0444,"dy":0.0017,"dx":0.0017,"nx":28,"ny":28,"refTime":"2025-06-09T03:00:00:Z","depth":"0","parameterNumber":3,"parameterNumberName":"V-component_of_CURRENTS"},"data":[0,0,0,0,0,0,0,0,0,0,0,0,0,0,0,0,0,0,0,0,0,0,0,0,0,0,0,0,0,0,0,0,0,0,0,0,0,0,0,0,0,0,0,0,0,0,0,0,0,0,0,0,0,0,0,0,0,0,-0.0456,-0.0456,0,-0.0475,-0.0475,-0.0475,-0.0378,-0.0375,-0.0373,-0.037,-0.0254,-0.0254,-0.0253,0,0,0,0,0,0,0,0,0,0,0,0,0,-0.032,-0.0323,-0.0456,-0.0456,-0.0457,-0.0475,-0.0475,-0.0475,-0.0378,-0.0375,-0.0372,-0.0369,-0.0255,-0.0254,-0.0253,0,0,0,0,0,0,0,0,0,0,0,0,0,-0.0361,-0.0324,-0.0456,-0.0412,-0.0409,-0.0475,-0.0475,-0.0475,-0.0379,-0.0375,-0.0371,-0.0368,-0.0255,-0.0254,-0.0253,-0.0325,0,0,-0.025,-0.0249,0,0,0,0,0,0,0,0,-0.0359,-0.0366,-0.0418,-0.0415,-0.0411,-0.0422,-0.0385,-0.0419,-0.038,-0.0388,-0.037,-0.0366,-0.0302,-0.0297,-0.0308,-0.0319,-0.0314,-0.025,-0.0249,-0.0249,-0.0249,0,0,0,0,0,0,0,-0.0356,-0.0365,-0.0461,-0.0419,-0.0415,-0.0387,-0.0388,-0.0391,-0.0363,-0.0387,-0.0381,-0.0387,-0.0298,-0.031,-0.0304,-0.0313,-0.025,-0.0249,-0.0248,-0.0248,-0.0293,-0.0294,0,0,0,0,0,0,-0.0364,-0.0363,-0.046,-0.0462,-0.0378,-0.0392,-0.0394,-0.0421,-0.0365,-0.0355,-0.0391,-0.0383,-0.0313,-0.0306,-0.03,-0.034,-0.0249,-0.0248,-0.0247,-0.0291,-0.0293,-0.0295,0,0,0,0,0,0,-0.0362,-0.0374,-0.046,-0.0412,-0.0421,-0.0399,-0.043,-0.0423,-0.0415,-0.037,-0.0355,-0.0387,-0.031,-0.0301,-0.0297,-0.0335,-0.0247,-0.0246,-0.0289,-0.0291,-0.0294,-0.0445,0,0,0,0,0,0,-0.0358,-0.0374,-0.0395,-0.0414,-0.0425,-0.0507,-0.0434,-0.0426,-0.0428,-0.0417,-0.0363,-0.0349,-0.0306,-0.0299,-0.0296,-0.0332,-0.0246,-0.0286,-0.029,-0.0293,-0.0438,-0.0453,-0.0466,0,0,0,0,0,-0.0354,-0.041,-0.0396,-0.0408,-0.0456,-0.0509,-0.0513,-0.048,-0.0431,-0.0453,-0.0405,-0.035,-0.0317,-0.0301,-0.0297,-0.0333,-0.0285,-0.0289,-0.0293,-0.0432,-0.045,-0.0465,0,0,0,0,0,0,-0.0363,-0.0407,-0.0391,-0.0456,-0.048,-0.0493,-0.0517,-0.049,-0.0475,-0.0454,-0.0386,-0.0372,-0.038,-0.0341,-0.0325,-0.0353,-0.0288,-0.0291,-0.0395,-0.0411,-0.0425,-0.0447,-0.0245,0,0,0,0,0,-0.038,-0.0429,-0.0457,-0.0507,-0.0525,-0.0519,-0.0533,-0.0517,-0.0509,-0.0497,-0.0462,-0.0421,-0.0404,-0.0391,-0.0375,-0.0405,-0.0297,-0.042,-0.0434,-0.0446,-0.046,-0.0331,-0.0333,-0.0308,-0.0308,-0.0308,0,0,-0.0393,-0.0427,-0.045,-0.0512,-0.0525,-0.0578,-0.0517,-0.0556,-0.0589,-0.0491,-0.0519,-0.0474,-0.0422,-0.0447,-0.0447,-0.0413,-0.0391,-0.0451,-0.0462,-0.047,-0.0335,-0.0337,-0.0338,-0.0311,-0.031,-0.031,0,0,-0.0455,-0.0482,-0.0538,-0.0574,-0.0614,-0.0625,-0.0637,-0.0657,-0.0652,-0.0688,-0.0613,-0.0592,-0.0583,-0.055,-0.0531,-0.0614,-0.0469,-0.0602,-0.0693,-0.0568,-0.0568,-0.0567,-0.0408,-0.0391,-0.0609,-0.0609,-0.0609,0,-0.046,-0.0538,-0.0561,-0.0628,-0.0658,-0.0649,-0.0706,-0.0732,-0.0744,-0.0744,-0.0711,-0.0673,-0.0635,-0.0636,-0.067,-0.0646,-0.053,-0.0637,-0.0584,-0.0581,-0.0577,-0.0414,-0.0394,-0.0617,-0.0616,-0.0615,-0.0614,0,-0.0557,-0.0618,-0.0662,-0.0738,-0.0782,-0.0836,-0.0873,-0.0904,-0.0891,-0.0892,-0.0894,-0.0846,-0.0808,-0.0804,-0.0772,-0.0745,-0.0653,-0.0614,-0.054,-0.0588,-0.0413,-0.0389,-0.0628,-0.0625,-0.0623,-0.0621,0,0,-0.0554,-0.0696,-0.0705,-0.0745,-0.0837,-0.0875,-0.096,-0.101,-0.1022,-0.1042,-0.1043,-0.1045,-0.099,-0.0965,-0.0906,-0.0826,-0.0707,-0.0728,-0.0718,-0.0567,-0.0385,-0.0385,-0.0357,-0.0644,-0.0642,-0.064,-0.0262,0,-0.0602,-0.0728,-0.0795,-0.0899,-0.0956,-0.0998,-0.1065,-0.1111,-0.1122,-0.1132,-0.1098,-0.1074,-0.1059,-0.1016,-0.0954,-0.0768,-0.0656,-0.0811,-0.0364,-0.0351,-0.0342,-0.0336,-0.0286,0.0047,-0.0238,-0.0234,-0.0231,0,-0.0659,-0.0732,-0.0842,-0.0951,-0.0977,-0.104,-0.1102,-0.1163,-0.1198,-0.1198,-0.1193,-0.1147,-0.1084,-0.1036,-0.0763,-0.0853,-0.0643,-0.0491,-0.0471,-0.0408,-0.0309,0.0044,0.0102,0.0242,-0.0193,-0.0196,-0.0199,0,-0.0613,-0.0758,-0.0834,-0.0878,-0.1007,-0.1049,-0.1105,-0.1165,-0.1194,-0.1214,-0.1201,-0.1142,-0.106,-0.0855,-0.0622,-0.065,-0.0273,-0.0247,-0.0037,-0.0031,0.0126,0.0139,0.0369,-0.0011,-0.0012,-0.0013,-0.0014,0,-0.0636,-0.0692,-0.0812,-0.0855,-0.0923,-0.1018,-0.1071,-0.1128,-0.1171,-0.1183,-0.1209,-0.1175,-0.1005,-0.081,-0.0592,-0.0259,-0.0228,-0.0045,0.0055,0.0074,0.0077,0.0296,0.0317,0.0001,-0.0002,-0.0005,-0.0007,0,-0.0589,-0.0675,-0.0758,-0.0878,-0.0912,-0.0952,-0.1054,-0.1082,-0.1131,-0.114,-0.1139,-0.1129,-0.0902,-0.0699,-0.0327,-0.0185,0.0232,0.0253,0.0256,0.0344,0.0594,0.0603,0.0923,0.1038,0.0548,0.055,0.0552,0,-0.0588,-0.0626,-0.0743,-0.0782,-0.0839,-0.0908,-0.0955,-0.1046,-0.1071,-0.11,-0.1087,-0.0942,-0.0862,-0.0391,-0.009,0.0307,0.041,0.0594,0.0504,0.0612,0.0701,0.0693,0.0765,0.0706,0.0708,0.0711,0.0713,0,-0.0561,-0.0592,-0.0656,-0.0732,-0.0789,-0.085,-0.0918,-0.0935,-0.1017,-0.102,-0.0996,-0.0945,-0.0603,-0.0257,0.0177,0.0425,0.0658,0.0651,0.0794,0.0843,0.0828,0.0985,0.0471,0.0733,0.0731,0.073,0.0729,0.0728,-0.0518,-0.0545,-0.0619,-0.0686,-0.074,-0.0782,-0.0806,-0.0853,-0.0876,-0.0868,-0.0884,-0.0779,-0.037,0.0186,0.0434,0.0936,0.0872,0.1087,0.1107,0.1103,0.1127,0.0627,0.0945,0.0944,0.0943,0.0942,0.0942,0,-0.0477,-0.0516,-0.0573,-0.0649,-0.0675,-0.0726,-0.0773,-0.0767,-0.0754,-0.0731,-0.0703,-0.0372,0.0092,0.0517,0.1173,0.1392,0.1446,0.1497,0.1533,0.1601,0.1236,0.1148,0.1481,0.1481,0.1481,0.1481,0.1481,0.148,-0.0459,-0.0497,-0.0534,-0.0569,-0.0607,-0.062,-0.063,-0.0606,-0.0575,-0.0431,-0.0295,-0.0208,0.033,0.1143,0.173,0.18,0.1967,0.1918,0.2013,0.1762,0.1725,0.169,0.1616,0.2041,0.2042,0.2404,0.2407,0.2409]}],[{"header":{"parameterUnit":"m.s-1","parameterCategory":2,"la1":30.2991,"la2":30.254,"lo1":-89.0895,"lo2":-89.0444,"dy":0.0017,"dx":0.0017,"nx":28,"ny":28,"refTime":"2025-06-09T03:00:00:Z","depth":"2","parameterNumber":2,"parameterNumberName":"U-component_of_CURRENTS"},"data":[0,0,0,0,0,0,0,0,0,0,0,0,0,0,0,0,0,0,0,0,0,0,0,0,0,0,0,0,0,0,0,0,0,0,0,0,0,0,0,0,0,0,0,0,0,0,0,0,0,0,0,0,0,0,0,0,0,0,-0.2303,-0.2305,0,-0.2404,-0.2404,-0.2404,-0.2522,-0.2525,-0.2528,-0.2531,-0.2748,-0.2751,-0.2754,0,0,0,0,0,0,0,0,0,0,0,0,0,-0.2117,-0.212,-0.2303,-0.2305,-0.2308,-0.2404,-0.2404,-0.2404,-0.2522,-0.2525,-0.2529,-0.2532,-0.2747,-0.2751,-0.2755,0,0,0,0,0,0,0,0,0,0,0,0,0,-0.2195,-0.2121,-0.2303,-0.2386,-0.2396,-0.2404,-0.2404,-0.2404,-0.2521,-0.2525,-0.253,-0.2534,-0.2746,-0.275,-0.2755,-0.2698,0,0,-0.2769,-0.2771,0,0,0,0,0,0,0,0,-0.2191,-0.22,-0.2372,-0.2381,-0.2391,-0.2465,-0.2419,-0.2512,-0.252,-0.2461,-0.2531,-0.2536,-0.2669,-0.268,-0.2671,-0.2708,-0.2717,-0.277,-0.2773,-0.2775,-0.2776,0,0,0,0,0,0,0,-0.2185,-0.2196,-0.2331,-0.2374,-0.2386,-0.2387,-0.2403,-0.2435,-0.2533,-0.2466,-0.2478,-0.2507,-0.2674,-0.2666,-0.2678,-0.2721,-0.277,-0.2774,-0.2777,-0.2779,-0.2783,-0.278,0,0,0,0,0,0,-0.2197,-0.2191,-0.2328,-0.2335,-0.2313,-0.2388,-0.2405,-0.2427,-0.253,-0.2552,-0.2503,-0.2512,-0.2656,-0.2672,-0.2686,-0.2788,-0.2775,-0.2779,-0.2782,-0.2785,-0.2782,-0.2779,0,0,0,0,0,0,-0.2192,-0.2207,-0.2324,-0.2275,-0.2292,-0.2389,-0.2412,-0.2428,-0.2456,-0.2559,-0.2582,-0.2522,-0.266,-0.268,-0.2704,-0.2792,-0.2781,-0.2785,-0.2789,-0.2784,-0.2781,-0.2887,0,0,0,0,0,0,-0.2186,-0.2204,-0.2217,-0.2276,-0.2296,-0.2337,-0.241,-0.2427,-0.247,-0.2483,-0.2581,-0.2604,-0.2665,-0.2696,-0.2708,-0.2798,-0.2789,-0.2792,-0.2787,-0.2782,-0.2887,-0.2888,-0.2888,0,0,0,0,0,-0.2178,-0.2196,-0.2217,-0.2234,-0.2313,-0.2337,-0.2344,-0.242,-0.2467,-0.2462,-0.2512,-0.2603,-0.2674,-0.2696,-0.2712,-0.2806,-0.2794,-0.2788,-0.2782,-0.2887,-0.2888,-0.2888,0,0,0,0,0,0,-0.2148,-0.2212,-0.2237,-0.228,-0.2306,-0.2362,-0.238,-0.2416,-0.2445,-0.2471,-0.2558,-0.2581,-0.2633,-0.2653,-0.2676,-0.2771,-0.2753,-0.2749,-0.2827,-0.2828,-0.2828,-0.2916,-0.2793,0,0,0,0,0,-0.2137,-0.2155,-0.2211,-0.2242,-0.2256,-0.2308,-0.233,-0.2372,-0.2414,-0.2434,-0.2501,-0.2556,-0.2605,-0.2665,-0.268,-0.2736,-0.2673,-0.2795,-0.2795,-0.2797,-0.2865,-0.2786,-0.2789,-0.2759,-0.2759,-0.2759,0,0,-0.2136,-0.2175,-0.2189,-0.2233,-0.2262,-0.2298,-0.233,-0.2363,-0.2425,-0.2451,-0.2536,-0.2544,-0.2599,-0.2662,-0.2693,-0.2716,-0.2739,-0.2789,-0.2792,-0.2861,-0.2781,-0.2785,-0.2788,-0.2755,-0.2756,-0.2757,0,0,-0.214,-0.2171,-0.2184,-0.2207,-0.2254,-0.2286,-0.2297,-0.2346,-0.2403,-0.2435,-0.2489,-0.2553,-0.2593,-0.2701,-0.2751,-0.2749,-0.2712,-0.2728,-0.2869,-0.279,-0.2794,-0.2798,-0.2607,-0.2594,-0.2771,-0.2771,-0.2771,0,-0.2144,-0.2185,-0.2188,-0.2216,-0.2282,-0.2288,-0.2348,-0.2375,-0.2431,-0.2522,-0.2472,-0.2583,-0.2643,-0.2802,-0.2822,-0.278,-0.265,-0.2889,-0.28,-0.2803,-0.2805,-0.261,-0.2594,-0.2775,-0.2775,-0.2775,-0.2774,0,-0.2158,-0.2205,-0.2218,-0.227,-0.2316,-0.2357,-0.2423,-0.2485,-0.2535,-0.259,-0.2695,-0.2701,-0.28,-0.2817,-0.2849,-0.2931,-0.2794,-0.2781,-0.2827,-0.2817,-0.2606,-0.2588,-0.2782,-0.278,-0.2779,-0.2778,0,0,-0.2169,-0.2221,-0.223,-0.2322,-0.2369,-0.2442,-0.2542,-0.2685,-0.2775,-0.2801,-0.2901,-0.3028,-0.3014,-0.3063,-0.3073,-0.3065,-0.2954,-0.2954,-0.2947,-0.2812,-0.2653,-0.2531,-0.2497,-0.2898,-0.2898,-0.2898,-0.246,0,-0.2203,-0.2278,-0.2304,-0.2451,-0.2535,-0.2623,-0.2708,-0.2838,-0.2882,-0.2936,-0.302,-0.3037,-0.3102,-0.3089,-0.3117,-0.2975,-0.2925,-0.3067,-0.2646,-0.2633,-0.2569,-0.2483,-0.2433,-0.204,-0.2441,-0.2438,-0.2436,0,-0.2231,-0.2308,-0.2421,-0.2625,-0.2669,-0.2748,-0.2969,-0.3021,-0.3106,-0.3121,-0.3191,-0.3141,-0.3201,-0.3145,-0.3014,-0.3071,-0.2905,-0.2781,-0.2759,-0.2632,-0.2483,-0.2131,-0.1991,-0.2404,-0.2407,-0.2409,-0.2411,0,-0.2275,-0.2432,-0.255,-0.2608,-0.2774,-0.2916,-0.3,-0.3113,-0.3128,-0.3175,-0.3111,-0.3181,-0.307,-0.298,-0.2792,-0.2856,-0.2501,-0.2538,-0.2269,-0.225,-0.2133,-0.2107,-0.2413,-0.2413,-0.2414,-0.2415,-0.2417,0,-0.2315,-0.2449,-0.26,-0.2667,-0.2861,-0.297,-0.307,-0.3181,-0.3153,-0.3113,-0.3159,-0.3069,-0.3009,-0.2814,-0.2708,-0.2399,-0.2423,-0.2282,-0.2159,-0.2147,-0.2129,-0.243,-0.2438,-0.2399,-0.2402,-0.2406,-0.2408,0,-0.2325,-0.2394,-0.2586,-0.2796,-0.286,-0.2999,-0.3043,-0.3052,-0.306,-0.2964,-0.2942,-0.2887,-0.2651,-0.2514,-0.225,-0.2204,-0.1972,-0.1846,-0.1786,-0.1672,-0.1781,-0.1799,-0.1519,-0.1512,-0.1505,-0.15,-0.1496,0,-0.2369,-0.2414,-0.262,-0.2676,-0.2771,-0.2907,-0.2912,-0.2989,-0.2946,-0.2851,-0.2783,-0.255,-0.2388,-0.1951,-0.1805,-0.151,-0.1638,-0.1305,-0.1526,-0.1797,-0.1703,-0.1731,-0.1756,-0.132,-0.1314,-0.131,-0.1306,0,-0.2437,-0.2447,-0.2546,-0.2583,-0.2669,-0.2717,-0.2761,-0.2727,-0.2739,-0.2656,-0.2508,-0.2361,-0.1983,-0.1699,-0.1339,-0.1205,-0.1385,-0.1205,-0.145,-0.1602,-0.1588,-0.1504,-0.1539,-0.1267,-0.1271,-0.1274,-0.1276,-0.1277,-0.2457,-0.2491,-0.2479,-0.2529,-0.2548,-0.2511,-0.2478,-0.2488,-0.241,-0.2263,-0.2234,-0.1961,-0.1822,-0.127,-0.1052,-0.0875,-0.1006,-0.1006,-0.1028,-0.1053,-0.1158,-0.114,-0.0744,-0.0745,-0.0745,-0.0746,-0.0747,0,-0.242,-0.2373,-0.2398,-0.2404,-0.2309,-0.2344,-0.2319,-0.2243,-0.2125,-0.2,-0.1827,-0.1504,-0.1249,-0.1056,-0.0763,-0.0656,-0.0724,-0.0591,-0.0757,-0.0796,-0.083,-0.0935,-0.0454,-0.0452,-0.0451,-0.045,0,0,-0.2361,-0.2312,-0.2285,-0.2147,-0.2091,-0.1926,-0.1873,-0.179,-0.17,-0.1491,-0.1314,-0.1268,-0.1154,-0.0894,-0.075,-0.0571,-0.0683,-0.0506,-0.0754,-0.0999,-0.1033,-0.1081,-0.1284,0,0,0,0,0]},{"header":{"parameterUnit":"m.s-1","parameterCategory":2,"la1":30.2991,"la2":30.254,"lo1":-89.0895,"lo2":-89.0444,"dy":0.0017,"dx":0.0017,"nx":28,"ny":28,"refTime":"2025-06-09T03:00:00:Z","depth":"2","parameterNumber":3,"parameterNumberName":"V-component_of_CURRENTS"},"data":[0,0,0,0,0,0,0,0,0,0,0,0,0,0,0,0,0,0,0,0,0,0,0,0,0,0,0,0,0,0,0,0,0,0,0,0,0,0,0,0,0,0,0,0,0,0,0,0,0,0,0,0,0,0,0,0,0,0,-0.0205,-0.0204,0,-0.007,-0.0069,-0.0067,0.0028,0.0028,0.0029,0.003,0.0303,0.0309,0.0316,0,0,0,0,0,0,0,0,0,0,0,0,0,-0.0354,-0.0352,-0.0205,-0.0204,-0.0202,-0.007,-0.0069,-0.0067,0.0028,0.0029,0.0029,0.003,0.0301,0.0309,0.0316,0,0,0,0,0,0,0,0,0,0,0,0,0,-0.0262,-0.0351,-0.0206,-0.0138,-0.0131,-0.0071,-0.0069,-0.0066,0.0027,0.0029,0.003,0.0031,0.0298,0.0308,0.0318,0.0354,0,0,0.0347,0.0352,0,0,0,0,0,0,0,0,-0.0267,-0.0256,-0.015,-0.0143,-0.0135,-0.0036,-0.0021,0.0081,0.0027,-0.0034,0.003,0.0031,0.0202,0.022,0.024,0.0367,0.0378,0.0348,0.0354,0.0358,0.0361,0,0,0,0,0,0,0,-0.0274,-0.0262,-0.0152,-0.0148,-0.0139,-0.0105,-0.0091,-0.0001,0.0078,-0.0028,-0.0021,-0.0005,0.0207,0.023,0.0247,0.0382,0.0348,0.0357,0.0363,0.0367,0.0541,0.054,0,0,0,0,0,0,-0.0291,-0.0268,-0.0157,-0.0148,-0.0198,-0.0104,-0.0088,-0.007,0.0074,0.0096,-0.0006,-0.0001,0.0212,0.0236,0.0257,0.0321,0.0358,0.0368,0.0373,0.0543,0.0541,0.054,0,0,0,0,0,0,-0.0295,-0.0283,-0.0162,-0.0205,-0.0187,-0.0103,-0.0083,-0.0068,-0.0036,0.0089,0.0114,0.0011,0.0214,0.0244,0.031,0.0333,0.0372,0.0381,0.0544,0.0542,0.054,0.0443,0,0,0,0,0,0,-0.03,-0.0285,-0.0278,-0.0206,-0.0185,-0.0126,-0.0083,-0.0066,-0.0028,-0.002,0.0112,0.0138,0.0217,0.0294,0.032,0.0347,0.0389,0.0546,0.0543,0.0541,0.0447,0.0438,0.0429,0,0,0,0,0,-0.0306,-0.0291,-0.0279,-0.0265,-0.0178,-0.0126,-0.0113,-0.005,-0.0029,-0.0017,0.0047,0.0134,0.0299,0.0301,0.0331,0.0362,0.0547,0.0544,0.0541,0.0452,0.044,0.043,0,0,0,0,0,0,-0.0342,-0.0278,-0.0263,-0.0228,-0.0186,-0.011,-0.0087,-0.0056,0.0002,0.0012,0.0119,0.0149,0.0212,0.0287,0.0287,0.0398,0.0438,0.0441,0.036,0.035,0.0341,0.0349,0.0397,0,0,0,0,0,-0.0353,-0.0332,-0.027,-0.0246,-0.0226,-0.0164,-0.0136,-0.0099,-0.0039,-0.0012,0.007,0.0153,0.0222,0.0283,0.035,0.0422,0.0479,0.0458,0.0449,0.0441,0.0463,0.049,0.0485,0.0531,0.0531,0.0531,0,0,-0.0361,-0.0324,-0.0311,-0.0254,-0.0215,-0.0197,-0.0143,-0.0104,-0.0092,0.0012,0.0054,0.0122,0.0225,0.0288,0.0327,0.0362,0.0461,0.0437,0.043,0.0458,0.0486,0.0482,0.0478,0.0529,0.0529,0.0529,0,0,-0.0369,-0.0335,-0.0322,-0.0299,-0.0249,-0.0215,-0.021,-0.0146,-0.0116,-0.0078,-0.0009,0.0071,0.0172,0.0262,0.0317,0.0305,0.0394,0.0316,0.0311,0.0334,0.0331,0.0329,0.0413,0.0419,0.0333,0.0333,0.0333,0,-0.0383,-0.0364,-0.0312,-0.0301,-0.0293,-0.0232,-0.0233,-0.0195,-0.0123,-0.0089,-0.0077,0.0067,0.017,0.0263,0.0263,0.0295,0.0319,0.0345,0.0323,0.0322,0.0322,0.0408,0.0416,0.0328,0.0328,0.0329,0.0329,0,-0.0384,-0.038,-0.0371,-0.0349,-0.033,-0.0321,-0.0275,-0.0243,-0.021,-0.0161,-0.0086,0.0017,0.0111,0.0156,0.022,0.0277,0.0299,0.0288,0.0351,0.0311,0.0405,0.0416,0.032,0.0322,0.0324,0.0325,0,0,-0.0401,-0.0379,-0.0382,-0.0392,-0.0364,-0.0347,-0.0327,-0.0278,-0.0255,-0.0185,-0.016,-0.001,0.0043,0.0108,0.0188,0.0249,0.0295,0.0267,0.0271,0.0354,0.0369,0.0424,0.0441,0.0246,0.0246,0.0247,0.0442,0,-0.0428,-0.0443,-0.0418,-0.0441,-0.0453,-0.0405,-0.0392,-0.0337,-0.0292,-0.0254,-0.0132,-0.0087,0.0018,0.0044,0.0121,0.0211,0.0313,0.0247,0.0394,0.0402,0.0455,0.0451,0.0359,0.0525,0.0453,0.0454,0.0456,0,-0.0446,-0.0462,-0.0496,-0.0501,-0.0497,-0.0496,-0.0467,-0.0448,-0.0365,-0.0333,-0.0255,-0.0194,-0.0081,-0.0025,0.0169,0.0097,0.0251,0.035,0.0357,0.0456,0.0474,0.055,0.0548,0.0474,0.0473,0.0471,0.047,0,-0.0504,-0.0516,-0.0554,-0.056,-0.0548,-0.054,-0.0529,-0.0461,-0.0448,-0.0403,-0.0401,-0.0279,-0.0245,-0.0088,0.0138,0.0123,0.0342,0.034,0.0572,0.058,0.0564,0.0568,0.0525,0.0525,0.0525,0.0524,0.0524,0,-0.0554,-0.0581,-0.0582,-0.0605,-0.0631,-0.0604,-0.0612,-0.0573,-0.0545,-0.0526,-0.0459,-0.0426,-0.0273,-0.0129,0.0087,0.0357,0.0308,0.0597,0.0628,0.053,0.0529,0.0526,0.0524,0.0532,0.053,0.0528,0.0527,0,-0.061,-0.0613,-0.0657,-0.0663,-0.066,-0.0685,-0.0682,-0.0675,-0.0656,-0.065,-0.0655,-0.056,-0.0401,-0.018,0.0084,0.0295,0.0545,0.0686,0.0596,0.0613,0.0793,0.0783,0.0934,0.0937,0.094,0.0942,0.0944,0,-0.0631,-0.0662,-0.0706,-0.0722,-0.0726,-0.0751,-0.0749,-0.0735,-0.0731,-0.0695,-0.0689,-0.0577,-0.0437,-0.005,0.028,0.0652,0.0651,0.0812,0.0798,0.0817,0.0832,0.0818,0.0804,0.0754,0.0754,0.0755,0.0755,0,-0.0673,-0.0695,-0.0732,-0.0775,-0.0791,-0.0814,-0.0816,-0.0833,-0.0802,-0.0782,-0.0705,-0.0607,-0.0273,0.0044,0.0482,0.069,0.0715,0.0834,0.0845,0.0659,0.0661,0.0671,0.0661,0.0757,0.0757,0.0757,0.0756,0.0756,-0.0682,-0.0733,-0.0771,-0.0813,-0.083,-0.084,-0.0848,-0.0839,-0.082,-0.0757,-0.0681,-0.045,-0.022,0.0424,0.0625,0.0829,0.0891,0.0932,0.0926,0.092,0.0857,0.0864,0.0991,0.0992,0.0993,0.0993,0.0994,0,-0.0678,-0.0731,-0.0785,-0.0827,-0.0854,-0.0843,-0.0848,-0.0838,-0.0794,-0.0677,-0.0574,-0.0215,0.013,0.0382,0.0744,0.0951,0.0889,0.0905,0.0767,0.0766,0.0765,0.0687,0.078,0.078,0.0779,0.0779,0,0,-0.0672,-0.074,-0.0796,-0.0838,-0.084,-0.0832,-0.0826,-0.0805,-0.0709,-0.0576,-0.0349,-0.0093,0.0252,0.0453,0.0578,0.0693,0.0674,0.0676,0.0831,0.0644,0.064,0.0767,0.0648,0,0,0,0,0]}],[{"header":{"parameterUnit":"m.s-1","parameterCategory":2,"la1":30.2991,"la2":30.254,"lo1":-89.0895,"lo2":-89.0444,"dy":0.0017,"dx":0.0017,"nx":28,"ny":28,"refTime":"2025-06-09T03:00:00:Z","depth":"4","parameterNumber":2,"parameterNumberName":"U-component_of_CURRENTS"},"data":[0,0,0,0,0,0,0,0,0,0,0,0,0,0,0,0,0,0,0,0,0,0,0,0,0,0,0,0,0,0,0,0,0,0,0,0,0,0,0,0,0,0,0,0,0,0,0,0,0,0,0,0,0,0,0,0,0,0,-0.1588,-0.1589,0,-0.1636,-0.1636,-0.1637,-0.1662,-0.1662,-0.1662,-0.1662,-0.1728,-0.173,-0.1731,0,0,0,0,0,0,0,0,0,0,0,0,0,-0.1478,-0.148,-0.1588,-0.1589,-0.159,-0.1636,-0.1636,-0.1637,-0.1662,-0.1662,-0.1662,-0.1662,-0.1728,-0.173,-0.1732,0,0,0,0,0,0,0,0,0,0,0,0,0,-0.1525,-0.1481,-0.1588,-0.1608,-0.1611,-0.1636,-0.1637,-0.1637,-0.1662,-0.1662,-0.1662,-0.1662,-0.1727,-0.1729,-0.1732,-0.1744,0,0,-0.174,-0.1741,0,0,0,0,0,0,0,0,-0.1522,-0.1529,-0.1605,-0.1607,-0.161,-0.1644,-0.1622,-0.1674,-0.1662,-0.1641,-0.1662,-0.1662,-0.1702,-0.1707,-0.1714,-0.1747,-0.175,-0.174,-0.1741,-0.1742,-0.1743,0,0,0,0,0,0,0,-0.1519,-0.1527,-0.1606,-0.1605,-0.1608,-0.1601,-0.1608,-0.1632,-0.167,-0.1643,-0.1645,-0.1652,-0.1704,-0.1711,-0.1716,-0.1751,-0.174,-0.1742,-0.1743,-0.1744,-0.1863,-0.1864,0,0,0,0,0,0,-0.1517,-0.1524,-0.1605,-0.1608,-0.1566,-0.1603,-0.1611,-0.1632,-0.1669,-0.1675,-0.1652,-0.1653,-0.1707,-0.1713,-0.1718,-0.1801,-0.1742,-0.1745,-0.1746,-0.1861,-0.1863,-0.1865,0,0,0,0,0,0,-0.1515,-0.1525,-0.1603,-0.1566,-0.1576,-0.1605,-0.1628,-0.1633,-0.1669,-0.1676,-0.1682,-0.1686,-0.1707,-0.1715,-0.177,-0.1801,-0.1746,-0.1748,-0.1859,-0.1862,-0.1864,-0.1925,0,0,0,0,0,0,-0.1512,-0.1524,-0.1552,-0.1567,-0.1578,-0.1636,-0.1628,-0.1634,-0.1671,-0.1674,-0.1707,-0.1711,-0.1708,-0.1766,-0.1772,-0.1804,-0.175,-0.1857,-0.186,-0.1863,-0.1921,-0.1929,-0.1936,0,0,0,0,0,-0.1508,-0.1538,-0.1553,-0.1563,-0.1612,-0.1637,-0.1643,-0.1661,-0.1673,-0.1694,-0.1723,-0.1712,-0.179,-0.177,-0.1777,-0.181,-0.1855,-0.1859,-0.1863,-0.1917,-0.1927,-0.1936,0,0,0,0,0,0,-0.15,-0.1544,-0.1561,-0.1603,-0.1629,-0.1642,-0.1667,-0.1681,-0.172,-0.1733,-0.1739,-0.1747,-0.1801,-0.1802,-0.1781,-0.1852,-0.1818,-0.1824,-0.1857,-0.1867,-0.1875,-0.184,-0.1752,0,0,0,0,0,-0.1513,-0.1554,-0.1582,-0.162,-0.1635,-0.1659,-0.1678,-0.1693,-0.1721,-0.1739,-0.1763,-0.179,-0.1817,-0.1841,-0.1859,-0.1908,-0.1895,-0.1932,-0.194,-0.1946,-0.1923,-0.1939,-0.1945,-0.1877,-0.1877,-0.1877,0,0,-0.1521,-0.1551,-0.1575,-0.1622,-0.1645,-0.1675,-0.1672,-0.1709,-0.1741,-0.1741,-0.1802,-0.182,-0.1836,-0.1884,-0.1908,-0.1894,-0.1966,-0.1951,-0.1956,-0.1929,-0.1943,-0.1949,-0.1955,-0.1879,-0.1879,-0.1878,0,0,-0.1542,-0.1585,-0.1621,-0.1648,-0.1691,-0.1705,-0.1724,-0.1758,-0.1784,-0.184,-0.1845,-0.1885,-0.1935,-0.1946,-0.1959,-0.2023,-0.2003,-0.2036,-0.2054,-0.2071,-0.2076,-0.208,-0.21,-0.2105,-0.2044,-0.2044,-0.2045,0,-0.1547,-0.1601,-0.1633,-0.1669,-0.1694,-0.1724,-0.1756,-0.1788,-0.1838,-0.1849,-0.187,-0.193,-0.1958,-0.1995,-0.202,-0.2039,-0.2041,-0.2019,-0.2079,-0.2083,-0.2086,-0.2105,-0.2109,-0.2048,-0.2047,-0.2047,-0.2047,0,-0.1586,-0.1638,-0.1659,-0.172,-0.1748,-0.1784,-0.1822,-0.1857,-0.1893,-0.1909,-0.196,-0.2,-0.202,-0.2054,-0.2061,-0.2098,-0.2092,-0.2084,-0.2051,-0.2096,-0.2114,-0.2118,-0.2053,-0.2051,-0.205,-0.205,0,0,-0.156,-0.1667,-0.1677,-0.1706,-0.1779,-0.1793,-0.1853,-0.1889,-0.1896,-0.1967,-0.1981,-0.2056,-0.2055,-0.2068,-0.2089,-0.2118,-0.217,-0.2114,-0.2113,-0.2124,-0.2209,-0.1995,-0.1979,-0.2172,-0.2173,-0.2173,-0.2222,0,-0.1578,-0.1657,-0.1705,-0.1763,-0.1798,-0.1839,-0.1873,-0.1908,-0.1939,-0.1959,-0.2008,-0.2032,-0.2069,-0.2079,-0.2118,-0.2149,-0.2178,-0.2157,-0.2169,-0.2169,-0.1965,-0.1974,-0.2175,-0.2225,-0.2226,-0.2226,-0.2227,0,-0.1586,-0.164,-0.1716,-0.177,-0.1784,-0.1821,-0.1848,-0.188,-0.1913,-0.1932,-0.1967,-0.199,-0.2055,-0.207,-0.2155,-0.214,-0.217,-0.2199,-0.2202,-0.1969,-0.1959,-0.2164,-0.2234,-0.2233,-0.2233,-0.2232,-0.2232,0,-0.1537,-0.1629,-0.1692,-0.172,-0.1795,-0.1818,-0.1841,-0.187,-0.187,-0.1907,-0.19,-0.1976,-0.2011,-0.2071,-0.2132,-0.2152,-0.2198,-0.2235,-0.2073,-0.2061,-0.2215,-0.221,-0.2267,-0.2267,-0.2267,-0.2267,-0.2267,0,-0.1518,-0.1556,-0.1676,-0.1704,-0.1725,-0.1784,-0.1784,-0.1806,-0.1825,-0.1801,-0.1875,-0.186,-0.201,-0.2049,-0.2114,-0.208,-0.2187,-0.205,-0.2041,-0.2246,-0.2243,-0.222,-0.2214,-0.2269,-0.2269,-0.2268,-0.2268,0,-0.1446,-0.1541,-0.1598,-0.1692,-0.171,-0.1718,-0.174,-0.1719,-0.1753,-0.1727,-0.1738,-0.1801,-0.1834,-0.1937,-0.2033,-0.2022,-0.2034,-0.1992,-0.2192,-0.2198,-0.1906,-0.1903,-0.1836,-0.1829,-0.1822,-0.1817,-0.1812,0,-0.1408,-0.1451,-0.1569,-0.1585,-0.163,-0.165,-0.164,-0.1678,-0.1653,-0.166,-0.1633,-0.1668,-0.1702,-0.1665,-0.1797,-0.1864,-0.1856,-0.1867,-0.1892,-0.1855,-0.1855,-0.1862,-0.1868,-0.1802,-0.1801,-0.1799,-0.1797,0,-0.1324,-0.1399,-0.1449,-0.1495,-0.1512,-0.1506,-0.1508,-0.1475,-0.1498,-0.1548,-0.1462,-0.1454,-0.1466,-0.1538,-0.1569,-0.163,-0.1866,-0.1801,-0.1817,-0.1841,-0.1813,-0.1821,-0.1834,-0.1775,-0.1778,-0.178,-0.1782,0,-0.1247,-0.1267,-0.1354,-0.1366,-0.1389,-0.1352,-0.1369,-0.1325,-0.1304,-0.1328,-0.1299,-0.1337,-0.1422,-0.1411,-0.1448,-0.1463,-0.1482,-0.1487,-0.152,-0.1546,-0.1426,-0.1347,-0.1131,0,0,0,0,0,-0.1151,-0.117,-0.1197,-0.1214,-0.1234,-0.1241,-0.1265,-0.1287,-0.1324,-0.1213,-0.1245,-0.123,-0.1222,-0.1259,-0.1227,-0.1367,-0.1522,-0.1327,-0.1553,-0.1652,-0.1678,-0.1563,0,0,0,0,0,0,-0.1093,-0.1131,-0.1162,-0.1079,-0.1054,-0.1047,-0.1063,-0.1097,-0.1043,-0.1096,-0.11,-0.1145,-0.1174,-0.1213,-0.1193,-0.1211,-0.1328,-0.1369,-0.1366,-0.1638,-0.1661,-0.1681,-0.1573,0,0,0,0,0]},{"header":{"parameterUnit":"m.s-1","parameterCategory":2,"la1":30.2991,"la2":30.254,"lo1":-89.0895,"lo2":-89.0444,"dy":0.0017,"dx":0.0017,"nx":28,"ny":28,"refTime":"2025-06-09T03:00:00:Z","depth":"4","parameterNumber":3,"parameterNumberName":"V-component_of_CURRENTS"},"data":[0,0,0,0,0,0,0,0,0,0,0,0,0,0,0,0,0,0,0,0,0,0,0,0,0,0,0,0,0,0,0,0,0,0,0,0,0,0,0,0,0,0,0,0,0,0,0,0,0,0,0,0,0,0,0,0,0,0,-0.0174,-0.0173,0,-0.0091,-0.009,-0.0089,-0.0051,-0.0052,-0.0052,-0.0052,0.0046,0.0049,0.0051,0,0,0,0,0,0,0,0,0,0,0,0,0,-0.027,-0.0268,-0.0174,-0.0173,-0.0172,-0.0091,-0.009,-0.0088,-0.0051,-0.0052,-0.0052,-0.0052,0.0045,0.0048,0.0052,0,0,0,0,0,0,0,0,0,0,0,0,0,-0.0211,-0.0268,-0.0174,-0.0145,-0.0141,-0.0091,-0.009,-0.0088,-0.0051,-0.0052,-0.0052,-0.0052,0.0044,0.0048,0.0052,0.0083,0,0,0.0065,0.0067,0,0,0,0,0,0,0,0,-0.0214,-0.0207,-0.015,-0.0147,-0.0143,-0.0083,-0.0087,-0.003,-0.0051,-0.0085,-0.0052,-0.0052,0.0004,0.0011,0.0029,0.0088,0.0092,0.0065,0.0068,0.0069,0.0071,0,0,0,0,0,0,0,-0.0218,-0.021,-0.014,-0.0149,-0.0145,-0.0125,-0.0117,-0.0076,-0.0039,-0.0082,-0.0079,-0.0071,0.0006,0.0025,0.0031,0.0094,0.0065,0.0069,0.0071,0.0073,0.0198,0.0199,0,0,0,0,0,0,-0.0232,-0.0214,-0.0143,-0.0138,-0.0181,-0.0123,-0.0114,-0.0101,-0.0039,-0.0031,-0.0071,-0.007,0.0018,0.0026,0.0035,0.0066,0.0069,0.0073,0.0076,0.0197,0.0198,0.0199,0,0,0,0,0,0,-0.0234,-0.0226,-0.0146,-0.0175,-0.0164,-0.0121,-0.0107,-0.0099,-0.0082,-0.0032,-0.0022,-0.0062,0.0018,0.0029,0.0071,0.007,0.0075,0.0079,0.0196,0.0197,0.0199,0.0134,0,0,0,0,0,0,-0.0237,-0.0227,-0.0223,-0.0176,-0.0163,-0.0122,-0.0106,-0.0097,-0.0077,-0.0074,-0.002,-0.0012,0.0018,0.0065,0.0075,0.0076,0.0082,0.0195,0.0197,0.0198,0.0135,0.0132,0.0131,0,0,0,0,0,-0.024,-0.023,-0.0223,-0.0214,-0.0158,-0.0122,-0.0113,-0.0083,-0.0076,-0.0068,-0.0031,-0.0013,0.0082,0.0069,0.0081,0.0083,0.0194,0.0196,0.0198,0.0136,0.0133,0.0131,0,0,0,0,0,0,-0.0264,-0.0224,-0.0215,-0.0192,-0.0164,-0.0116,-0.0103,-0.0085,-0.0049,-0.0047,-0.0003,0.0009,0.0042,0.008,0.0064,0.0126,0.0142,0.0146,0.009,0.0088,0.0086,0.0056,0.0086,0,0,0,0,0,-0.027,-0.0256,-0.0216,-0.02,-0.0186,-0.0147,-0.0129,-0.011,-0.0072,-0.0057,-0.0021,0.0023,0.0062,0.0087,0.0124,0.0163,0.0189,0.0174,0.0172,0.017,0.0156,0.0211,0.0212,0.0205,0.0205,0.0205,0,0,-0.0276,-0.0252,-0.0245,-0.0205,-0.0179,-0.0168,-0.0136,-0.0111,-0.0108,-0.0051,-0.0032,0.0012,0.0069,0.0104,0.0124,0.0135,0.0185,0.0172,0.017,0.0157,0.0213,0.0214,0.0214,0.0206,0.0206,0.0206,0,0,-0.0282,-0.0259,-0.0251,-0.0234,-0.0201,-0.018,-0.0177,-0.0134,-0.012,-0.0091,-0.0053,-0.0005,0.0052,0.0094,0.0123,0.0139,0.0167,0.0151,0.0121,0.0175,0.0175,0.0176,0.0197,0.02,0.0156,0.0156,0.0156,0,-0.0293,-0.0281,-0.0244,-0.0236,-0.0236,-0.0192,-0.0198,-0.0171,-0.0123,-0.012,-0.0096,-0.001,0.0047,0.0088,0.0097,0.0131,0.0152,0.012,0.0169,0.017,0.0172,0.0194,0.0198,0.0153,0.0154,0.0154,0.0154,0,-0.0294,-0.0294,-0.0288,-0.0274,-0.0265,-0.0261,-0.0231,-0.0221,-0.0201,-0.0176,-0.0138,-0.0054,-0.0007,0.0029,0.007,0.011,0.0115,0.0151,0.0166,0.0168,0.0192,0.0197,0.0149,0.015,0.0151,0.0152,0,0,-0.0306,-0.0295,-0.0297,-0.0317,-0.0293,-0.0293,-0.0291,-0.0283,-0.0298,-0.0231,-0.0238,-0.0136,-0.0095,-0.0058,0.0008,0.007,0.0112,0.011,0.0114,0.0112,0.0201,0.021,0.0217,0.0151,0.0152,0.0153,0.0206,0,-0.0327,-0.0344,-0.033,-0.0366,-0.0379,-0.0363,-0.0373,-0.0361,-0.0341,-0.0333,-0.0241,-0.0213,-0.0127,-0.0105,-0.003,0.0072,0.0125,0.0092,0.0214,0.0217,0.0211,0.0224,0.0156,0.021,0.0212,0.0213,0.0213,0,-0.0341,-0.0358,-0.0395,-0.0441,-0.0446,-0.0461,-0.0498,-0.0499,-0.0471,-0.0453,-0.0401,-0.034,-0.0245,-0.0171,-0.0,-0.003,0.0072,0.016,0.0165,0.0198,0.0237,0.0215,0.0224,0.0223,0.0222,0.0221,0.0221,0,-0.0385,-0.0414,-0.0458,-0.0469,-0.0495,-0.0523,-0.0541,-0.0537,-0.0551,-0.053,-0.053,-0.0425,-0.0368,-0.0222,-0.0026,-0.0023,0.0159,0.0187,0.0287,0.0288,0.0289,0.0288,0.0298,0.0298,0.0298,0.0298,0.0298,0,-0.042,-0.046,-0.0488,-0.0512,-0.0585,-0.0582,-0.0645,-0.065,-0.0649,-0.0659,-0.059,-0.0562,-0.0374,-0.0244,-0.0071,0.0126,0.0128,0.0273,0.0307,0.026,0.0255,0.0292,0.029,0.03,0.03,0.0299,0.0299,0,-0.0457,-0.0469,-0.053,-0.058,-0.0603,-0.0655,-0.071,-0.0744,-0.074,-0.0751,-0.0746,-0.066,-0.0491,-0.0293,-0.0058,0.0063,0.0254,0.0326,0.0235,0.0265,0.0345,0.034,0.0407,0.0408,0.0408,0.0409,0.041,0,-0.0476,-0.0505,-0.0583,-0.0628,-0.0654,-0.0724,-0.0767,-0.0787,-0.0803,-0.079,-0.0783,-0.0668,-0.0574,-0.0249,-0.0049,0.024,0.03,0.0356,0.0371,0.0332,0.0359,0.0353,0.0347,0.0411,0.0411,0.0411,0.0411,0,-0.0518,-0.0542,-0.0593,-0.0682,-0.0743,-0.0811,-0.0859,-0.0874,-0.0875,-0.0877,-0.0792,-0.0652,-0.0473,-0.024,-0.0018,0.02,0.0292,0.0365,0.0364,0.0379,0.0338,0.0363,0.0356,0.0414,0.0414,0.0413,0.0413,0,-0.055,-0.0596,-0.0657,-0.0735,-0.0815,-0.0864,-0.089,-0.0881,-0.089,-0.0841,-0.0811,-0.063,-0.0534,-0.026,-0.0044,0.0156,0.0202,0.0246,0.0253,0.0252,0.0204,0.0129,0.0165,0,0,0,0,0,-0.0576,-0.0625,-0.0704,-0.0788,-0.0863,-0.0898,-0.0936,-0.094,-0.0927,-0.0858,-0.0826,-0.0644,-0.0365,-0.0263,-0.0055,-0.0037,0.0224,0.0205,0.0276,0.0429,0.0426,0.0397,0,0,0,0,0,0,-0.0595,-0.067,-0.0707,-0.0807,-0.0863,-0.0937,-0.0954,-0.0943,-0.0885,-0.0848,-0.0685,-0.0619,-0.033,-0.0469,-0.0058,-0.0005,0.006,0.0337,0.0341,0.043,0.0428,0.0425,0.0395,0,0,0,0,0]}]]